Location: Kerberlivit
(48.2787°N, 4.5413°W)
Time: 16:46:12
(UTC+00:00)

Cosmos 1500 Rocket - Pass Details

Date: 18 February 2020
Orbit: 602 x 632 km, 82.5° (Epoch: 31 March)

Event Time Altitude Azimuth Distance (km) Brightness Sun altitude
Rises 05:11:19 0° 351° (N) 2,931 7.0 -22.2°
Reaches altitude 10° 05:13:34 10° 352° (N) 2,015 6.2 -21.8°
Maximum altitude 05:18:03 81° 79° (E) 639 3.6 -21.1°
Drops below altitude 10° 05:22:27 10° 168° (SSE) 1,981 6.2 -20.4°
Sets 05:24:39 0° 170° (S) 2,877 7.1 -20.0°
